Wind_Speed
41 41 40 39 39 38 36 35 33 31 29 29 27 24 24 30 33 32 29 28 27 26 25 26 29 31 31 29 29 28 27 26 26 27 27 26 25 24 23 24 23 23 18 14 14 15 15 17 20 21 20 18 18 18 17 16 16 17 16 13 11 9 9
42 41 40 39 38 38 37 35 33 32 30 29 28 25 25 30 34 32 30 29 28 27 25 25 28 31 31 30 29 28 27 27 26 26 26 26 24 22 21 22 23 22 18 13 11 13 14 12 14 16 16 17 18 16 15 15 16 17 17 14 12 9 10
44 42 40 39 39 39 38 36 34 34 32 31 30 28 26 31 35 33 32 31 29 27 26 25 27 30 31 31 29 28 27 26 26 27 26 26 24 22 20 20 21 21 21 18 16 16 16 14 12 11 11 14 14 10 10 13 15 17 17 15 13 11 12
47 44 42 41 41 41 41 39 36 36 35 33 31 29 27 31 36 35 33 32 30 29 27 26 27 28 30 31 29 28 27 26 26 26 26 26 24 22 21 20 20 21 22 22 19 18 18 16 14 12 10 12 11 8 8 10 12 15 16 15 14 13 13
49 47 45 44 44 44 43 41 39 38 37 35 33 32 29 32 37 37 34 33 32 31 29 28 27 27 28 29 29 28 27 27 27 27 27 27 25 23 22 21 19 20 22 22 20 18 18 16 14 13 11 10 11 9 8 9 12 14 15 15 14 13 13
48 47 46 45 44 45 45 43 41 41 40 38 37 35 32 33 37 39 37 35 34 32 30 29 28 28 28 28 28 28 27 27 26 27 26 26 25 24 22 21 20 20 21 22 22 19 18 16 15 14 13 12 12 10 10 12 12 13 14 15 15 14 13
45 45 46 46 45 45 46 45 43 43 43 41 40 38 34 34 37 39 39 37 35 32 31 29 28 28 27 27 28 27 27 26 25 25 25 25 25 24 23 22 21 20 19 21 24 23 21 20 18 17 15 14 14 12 12 13 14 15 14 12 13 15 14
43 44 46 46 45 46 46 46 45 44 43 42 40 37 36 35 36 39 40 39 36 33 32 31 29 28 28 28 28 27 27 26 25 25 24 24 24 24 24 23 23 21 18 19 23 26 25 23 20 18 17 17 17 16 15 14 16 18 15 11 12 13 14
45 46 46 46 46 46 46 46 46 45 44 42 39 37 36 36 37 39 41 40 37 34 32 31 31 30 29 28 28 28 28 27 26 25 25 24 24 24 24 24 24 22 19 18 20 24 26 26 23 21 19 19 19 18 17 17 19 19 17 15 14 14 14
48 48 47 46 46 46 47 47 46 46 45 42 39 38 38 37 38 39 41 41 39 36 33 32 31 30 29 29 29 28 28 27 27 26 25 25 25 24 24 24 24 23 21 19 19 22 24 26 26 24 22 21 21 19 19 20 21 20 17 17 16 15 15
48 48 47 46 46 47 48 48 47 46 45 43 39 39 39 39 38 40 41 41 40 38 36 33 31 31 30 30 29 29 28 27 27 26 26 26 25 25 25 25 25 23 22 21 21 21 22 23 25 25 24 23 22 22 21 20 20 18 16 17 17 15 15
47 47 47 47 47 48 47 47 47 46 45 43 40 40 41 41 40 40 41 41 41 39 37 35 33 32 31 31 30 30 29 28 28 27 26 26 26 26 26 25 25 24 23 22 21 22 22 22 23 24 25 25 25 25 23 21 21 19 16 16 17 16 16
49 48 47 48 49 48 47 46 46 45 43 43 42 41 43 42 42 42 41 41 41 40 38 36 35 33 33 32 32 31 30 29 29 28 27 27 27 27 27 26 25 24 23 22 22 22 22 22 23 24 25 25 26 26 24 22 22 21 18 16 15 16 16
51 49 47 49 50 49 47 45 45 43 42 43 42 42 44 44 43 43 42 43 42 41 40 38 37 36 34 33 32 32 31 31 30 29 27 27 27 28 28 27 26 24 23 23 22 22 23 23 23 24 24 24 25 27 25 24 23 22 20 17 15 16 16
51 50 48 49 50 50 48 46 45 44 42 42 42 42 44 44 44 43 43 43 43 42 41 40 38 37 36 35 34 33 32 32 32 30 29 28 28 28 28 28 27 25 24 24 23 23 24 23 24 25 24 24 25 26 26 24 23 22 21 19 16 16 16
52 51 50 50 51 51 49 47 46 46 44 42 42 42 43 44 44 44 44 44 44 43 41 41 40 39 38 37 36 35 34 33 33 31 30 29 29 29 29 29 27 26 26 25 24 24 24 24 24 25 25 25 25 26 26 25 25 24 22 20 19 19 18
52 52 51 51 51 51 50 49 48 47 45 44 42 41 42 43 43 44 45 45 44 43 42 41 41 40 39 38 37 36 35 34 33 32 31 30 29 29 29 29 28 27 27 27 26 25 25 24 24 25 26 26 26 25 26 26 26 26 24 23 22 21 19
53 53 52 51 51 52 51 50 50 49 47 45 43 41 40 41 42 44 45 46 45 44 43 42 41 41 40 39 38 38 37 36 34 33 32 31 30 30 30 29 28 27 28 27 26 26 26 25 26 26 27 28 27 25 25 26 27 28 27 25 23 21 19
54 54 53 53 52 52 52 52 51 50 50 48 44 41 39 39 40 42 44 45 46 45 44 42 42 42 41 40 39 39 38 37 35 34 33 32 31 30 30 29 28 28 27 26 26 26 26 27 27 27 28 28 27 26 26 26 27 28 28 26 23 20 19
54 54 54 54 53 52 52 52 51 50 49 49 47 42 39 38 39 40 42 44 45 45 44 43 43 42 42 41 40 40 40 38 37 35 34 34 32 31 30 29 28 27 26 25 25 25 26 27 27 26 27 28 28 27 27 28 29 30 29 26 23 21 21
53 54 54 54 53 52 51 49 49 48 47 48 48 43 39 38 39 39 41 43 44 45 45 44 44 43 44 43 42 41 41 40 38 37 36 35 34 32 31 30 28 27 26 24 25 25 25 25 26 26 26 27 28 28 29 29 30 30 30 27 24 24 23
52 53 53 52 50 49 49 48 47 47 46 49 49 45 40 38 38 39 40 41 43 45 46 46 45 45 45 45 43 42 42 42 40 38 37 36 35 34 33 31 30 28 27 25 25 26 24 24 25 26 26 27 28 29 29 29 28 29 29 27 26 26 25
51 51 51 50 49 48 48 48 47 46 47 48 48 45 40 38 38 39 39 40 42 45 46 47 46 46 45 45 45 43 43 43 41 40 39 38 37 36 34 32 31 29 27 26 27 27 25 25 25 25 25 25 26 27 28 29 28 28 29 28 27 28 27
49 50 50 49 49 49 48 48 48 47 47 46 46 44 42 39 38 38 39 40 42 45 47 48 47 47 46 46 46 45 43 43 43 41 40 40 39 37 36 34 32 29 28 27 28 27 25 25 25 24 24 24 25 26 28 29 29 29 29 29 28 29 29
50 48 49 50 49 49 49 50 49 48 46 45 45 44 42 39 37 37 38 40 43 45 47 48 48 48 47 46 47 46 44 44 44 42 41 41 40 39 37 35 32 30 28 28 28 27 26 25 25 24 24 25 26 27 28 29 29 29 29 29 29 30 29
53 50 48 49 50 51 51 52 50 49 47 45 44 42 40 39 38 36 37 39 43 45 47 48 49 49 48 47 47 47 45 45 44 43 42 41 40 39 37 35 33 30 28 29 30 29 26 25 24 24 25 26 27 28 29 30 30 29 28 28 29 29 28
46 53 51 49 50 52 53 53 51 50 49 47 45 42 37 36 37 37 37 39 42 45 48 49 50 50 49 47 47 47 46 45 45 43 42 41 40 38 37 34 32 29 28 29 31 30 27 26 25 25 26 27 27 28 29 31 32 32 30 29 29 28 27
35 43 50 52 53 53 53 53 51 50 50 50 48 42 35 33 36 38 37 38 41 45 49 50 51 51 50 48 48 47 46 46 45 44 42 41 39 37 35 33 30 28 27 28 30 29 27 26 26 26 27 27 27 27 29 31 32 32 31 30 29 28 27
39 34 35 42 49 53 53 52 51 52 52 50 47 42 36 34 36 38 38 39 42 46 50 51 52 52 50 49 48 47 47 47 46 44 43 41 39 37 35 33 30 28 26 27 28 28 27 27 27 27 27 27 27 27 28 29 30 30 29 29 29 28 27
47 40 33 32 36 45 48 47 48 49 48 47 46 43 39 38 39 41 41 42 44 48 51 53 53 52 51 49 48 48 49 49 47 46 44 42 40 38 36 33 30 28 27 27 28 28 27 27 27 27 27 27 27 28 29 29 29 29 29 29 29 28 27
43 43 42 41 37 37 40 41 41 41 40 42 44 44 42 42 42 42 44 45 47 50 53 54 54 53 51 51 50 49 50 50 49 47 46 44 41 39 37 34 31 28 27 27 28 28 28 28 28 28 27 27 28 29 29 29 29 29 29 29 29 29 27
37 40 43 44 39 36 37 38 39 39 39 42 44 44 43 44 43 43 44 46 49 52 54 55 55 55 54 52 51 51 51 51 50 49 47 45 43 40 38 36 33 30 28 27 28 29 28 28 28 28 28 28 29 29 29 29 29 29 29 29 29 28 27
34 38 39 37 33 31 33 36 38 40 40 41 43 43 44 45 46 46 46 48 51 53 53 54 56 57 56 54 53 53 53 53 52 50 48 47 45 42 40 38 36 32 29 28 29 30 29 29 29 28 28 28 28 27 27 28 28 28 28 27 27 27 27
32 34 35 34 31 30 31 33 36 39 39 41 42 43 45 47 46 44 47 51 54 54 53 54 57 59 58 56 55 54 55 55 53 51 49 48 47 45 42 40 39 35 31 30 30 31 30 30 29 29 28 27 26 25 26 27 28 28 28 28 28 28 28
31 32 34 35 34 33 33 34 37 39 40 41 41 42 45 47 44 41 45 50 53 55 55 56 58 59 58 57 57 56 56 56 54 51 49 48 48 47 43 41 40 37 34 32 31 31 31 30 30 30 28 26 25 26 25 26 27 28 28 29 29 29 29
30 31 33 35 36 36 36 36 37 40 41 41 41 41 43 45 45 46 49 53 55 58 59 60 60 59 57 57 57 57 57 56 54 52 50 49 49 47 44 41 40 39 36 33 32 32 32 31 31 30 28 26 27 27 26 26 28 28 29 30 31 31 31
26 29 31 33 36 37 36 36 36 39 41 42 42 42 44 46 48 50 53 56 58 61 62 63 62 60 58 57 58 57 57 56 54 52 50 49 47 46 43 41 40 39 38 34 33 32 32 32 32 30 28 28 28 28 28 28 29 29 30 32 32 33 33
Wind_Direction
215 213 213 215 216 217 218 218 215 212 212 215 215 212 213 212 207 203 203 204 208 210 208 208 207 208 212 214 216 222 227 228 228 229 231 231 231 231 231 232 237 242 245 238 231 228 223 222 225 230 236 240 245 249 250 250 247 246 251 253 254 262 275
217 213 213 215 216 218 219 218 213 211 212 214 216 216 214 212 206 203 204 205 208 211 211 211 210 211 214 216 217 220 224 228 230 231 233 235 239 241 238 234 235 237 233 223 221 229 230 227 226 230 232 232 238 245 245 244 241 239 243 248 251 256 270
216 213 213 215 216 219 219 217 214 212 213 214 216 216 216 213 207 204 204 205 207 210 213 214 212 213 215 218 220 221 224 228 231 233 235 239 243 244 243 239 237 234 226 218 215 218 220 222 229 234 230 228 237 248 246 243 241 237 239 243 242 244 257
215 213 213 215 216 218 218 216 215 214 213 214 216 215 215 213 209 206 204 204 207 209 212 214 214 213 215 218 221 223 227 231 234 237 238 240 242 242 240 237 242 243 236 231 226 220 217 219 224 229 231 231 240 250 248 248 246 239 238 241 239 238 248
214 214 214 215 215 217 216 216 216 215 214 215 216 216 213 212 211 209 205 205 207 209 209 212 214 215 215 217 220 223 226 231 235 239 241 241 240 239 236 235 242 247 242 240 237 228 225 227 228 233 238 237 244 252 246 242 242 238 237 239 240 238 243
214 215 215 215 216 217 216 215 216 215 214 214 216 217 214 211 212 211 207 206 207 208 209 211 213 215 216 219 221 224 226 228 233 237 240 241 241 241 239 237 240 242 238 237 236 232 229 227 227 234 241 242 250 259 247 237 238 238 236 237 239 239 240
214 215 216 216 216 217 217 216 216 216 215 216 217 218 216 213 213 212 210 208 207 208 211 213 214 215 218 222 223 225 226 228 233 237 239 239 240 241 239 237 238 241 238 232 231 231 230 226 225 232 239 240 246 252 247 240 237 236 238 240 241 240 241
212 213 215 216 215 216 217 218 218 218 217 218 218 218 217 216 215 213 212 211 209 210 212 215 216 217 219 222 225 226 228 230 234 238 239 237 237 238 237 235 236 240 239 232 229 229 232 232 229 232 237 237 239 244 245 243 239 239 242 244 245 245 246
210 212 214 215 215 215 217 218 220 220 219 220 220 218 217 217 216 213 212 211 211 210 211 214 217 218 219 221 223 225 227 229 234 238 239 238 238 238 236 235 236 240 240 235 231 228 231 234 232 232 237 239 239 241 244 244 242 243 244 240 242 246 245
210 212 213 213 213 214 216 219 221 222 221 221 220 219 217 217 217 215 212 211 212 213 212 212 216 218 219 221 222 224 226 229 233 237 239 239 239 239 237 235 237 241 240 235 232 228 229 233 236 237 238 240 243 243 244 245 245 248 249 245 245 246 243
211 213 214 213 213 214 215 218 221 222 223 222 220 219 218 217 218 217 214 213 214 215 214 213 213 216 219 221 223 224 226 229 233 236 237 238 239 239 238 236 236 239 239 237 235 232 231 234 238 240 236 237 243 245 245 249 252 254 254 252 251 248 245
212 213 215 215 214 215 216 218 220 222 223 222 220 220 219 217 217 217 216 215 215 216 217 216 215 216 217 220 223 225 226 229 231 234 235 236 238 239 238 237 237 238 238 238 237 235 235 236 238 239 236 237 242 245 246 249 255 256 256 260 260 254 248
213 214 215 216 215 216 217 218 219 220 221 221 220 220 220 218 217 217 217 217 217 217 218 218 218 219 219 220 222 224 226 227 229 232 234 236 237 238 238 238 238 239 239 239 239 237 236 238 238 237 236 237 242 245 246 247 252 256 261 266 262 254 251
214 215 215 216 217 217 218 219 220 220 220 221 220 220 220 218 217 218 218 219 219 220 220 220 220 221 221 222 223 224 225 226 228 231 233 235 236 236 237 238 238 238 238 239 241 240 238 238 236 233 233 235 239 243 243 245 250 255 260 263 254 247 248
216 216 215 216 218 218 219 220 221 220 220 220 220 220 220 218 218 218 220 221 221 222 221 222 222 222 222 223 224 224 225 226 228 230 232 233 235 235 235 236 237 236 236 238 239 239 239 238 233 229 229 232 234 237 239 243 247 250 255 258 253 251 251
217 217 216 217 218 219 220 221 222 222 220 220 220 220 220 220 219 220 221 223 224 224 224 223 223 223 224 225 226 225 225 227 228 229 232 234 235 236 235 235 236 236 236 238 238 238 239 237 232 229 229 229 229 231 234 239 242 246 250 252 254 258 258
219 218 218 218 219 220 220 222 223 223 222 220 221 221 221 222 222 223 223 225 226 226 225 225 224 225 226 228 229 229 228 228 230 231 232 234 235 236 236 236 236 237 236 238 240 240 239 237 233 230 229 227 227 229 231 235 240 245 249 252 255 260 261
219 220 220 220 220 221 222 223 224 225 223 221 221 222 221 223 225 226 226 227 227 228 228 227 226 226 227 230 232 233 232 231 232 233 234 235 236 236 237 237 237 237 238 240 242 241 241 239 234 232 230 228 229 230 230 234 240 246 249 252 254 255 251
220 221 222 222 222 222 223 223 224 225 224 222 221 221 222 224 227 228 229 229 229 230 231 230 229 229 230 232 234 235 236 234 234 235 236 236 237 237 238 239 238 239 240 241 243 243 241 239 235 233 233 232 233 234 235 237 241 246 248 249 250 250 242
222 222 222 223 224 223 223 224 224 224 224 223 222 222 223 224 227 230 230 230 230 231 232 233 232 232 232 233 235 237 237 237 235 236 238 238 238 239 239 240 239 239 240 242 243 241 237 236 236 236 236 236 237 238 238 240 243 245 244 242 244 246 243
224 223 223 223 224 224 224 224 225 224 224 225 225 226 226 225 227 230 231 231 232 232 233 234 234 234 234 235 236 238 239 238 237 236 237 238 239 239 240 240 240 240 242 243 241 237 236 237 238 239 237 236 238 240 241 243 244 241 237 236 239 242 240
225 224 223 223 223 223 224 225 225 224 226 228 228 228 228 227 228 231 232 232 233 233 233 235 235 235 235 235 236 238 240 240 238 237 237 237 238 239 239 240 240 242 244 244 239 237 238 240 240 238 236 235 236 239 241 241 239 233 229 232 236 236 233
225 224 222 222 223 223 224 225 225 225 227 228 228 228 227 227 229 233 233 232 233 234 234 235 236 236 235 236 237 238 239 240 240 239 238 238 238 239 239 240 241 243 246 243 237 236 238 237 234 232 231 233 235 236 236 235 232 228 228 231 233 231 231
227 224 223 223 223 224 225 226 226 226 227 227 228 227 226 227 230 233 236 235 234 235 236 237 237 237 236 236 237 238 239 240 240 240 239 239 240 240 240 239 240 242 243 239 233 233 233 229 226 225 227 231 234 235 235 233 231 228 229 233 234 234 236
229 225 223 224 224 225 226 227 227 226 225 225 227 227 227 228 231 234 237 239 239 239 240 239 238 237 236 235 237 238 239 241 241 240 240 240 241 242 240 239 239 239 239 234 229 229 228 224 223 225 228 231 234 235 235 235 234 233 232 234 236 238 242
229 226 225 226 227 227 227 227 228 226 224 223 222 222 224 227 232 236 239 242 243 243 243 242 241 239 236 235 236 237 238 240 242 242 242 241 241 241 240 239 238 237 236 232 227 225 224 224 225 228 231 234 235 234 233 234 235 237 239 240 241 244 248
230 228 229 229 227 227 226 226 227 227 227 226 223 220 220 225 230 235 241 245 247 247 246 245 243 240 237 236 236 236 237 239 241 242 243 242 242 241 240 238 236 235 234 230 225 223 223 226 229 231 233 235 235 233 232 232 233 236 238 241 244 248 252
240 229 227 228 227 227 227 225 225 227 228 227 226 225 227 232 234 234 238 245 249 250 250 248 246 242 239 238 237 236 237 238 239 241 242 243 244 244 242 239 237 236 235 231 226 224 225 228 231 233 235 236 235 233 231 231 233 235 237 241 244 248 250
246 239 232 228 223 222 223 223 223 225 225 224 225 227 229 237 241 241 241 245 248 250 251 249 247 244 241 240 238 237 236 236 237 239 241 242 244 244 242 239 238 238 236 231 226 226 228 232 234 235 236 235 235 233 231 231 233 235 237 241 244 247 250
246 249 251 243 226 218 221 224 223 224 224 223 224 227 228 234 244 249 250 249 248 250 251 249 247 246 243 241 238 236 236 236 236 238 240 241 243 243 242 239 237 237 236 230 225 226 229 233 235 236 237 236 235 233 232 232 232 234 236 239 242 245 247
249 247 246 245 242 233 232 234 232 231 231 229 230 233 230 230 236 245 251 251 249 249 250 248 246 246 244 242 239 236 236 235 235 236 238 240 242 243 242 239 235 235 235 230 225 225 229 232 235 237 237 236 235 233 232 232 232 233 235 237 240 242 242
253 248 241 241 247 246 241 238 236 234 232 231 234 237 233 230 232 238 246 251 250 247 246 246 245 245 245 243 239 237 236 235 234 235 236 239 240 242 242 238 234 234 235 230 226 226 229 232 234 237 237 236 236 235 234 234 233 234 236 237 239 241 241
250 249 244 242 247 249 246 242 238 234 231 232 235 237 235 234 236 239 243 247 246 244 243 244 245 244 244 243 240 237 235 234 234 234 235 237 239 241 241 237 233 233 233 232 229 227 229 232 234 237 238 237 237 237 236 236 236 236 238 239 241 242 242
249 249 246 244 245 247 246 244 241 238 235 236 237 237 236 234 234 240 246 246 243 241 240 242 244 244 243 242 240 237 235 235 235 234 235 238 240 241 242 238 233 232 231 232 231 229 229 232 235 237 237 237 238 240 240 239 239 239 239 240 241 242 242
249 249 247 244 244 246 246 245 243 240 239 239 238 237 236 234 234 241 247 244 241 240 240 241 243 242 241 240 239 237 235 235 235 235 236 239 241 242 244 242 237 234 233 233 232 231 230 232 235 237 237 238 239 240 239 239 241 241 240 239 239 240 240
250 250 249 246 245 245 244 244 243 240 238 238 238 237 237 235 235 239 241 238 238 239 239 239 241 241 239 238 237 236 236 235 236 237 238 241 243 244 246 246 243 239 237 237 236 234 233 234 236 237 236 237 238 237 235 235 236 238 239 239 239 239 240
251 250 249 248 246 245 243 242 241 239 236 236 236 236 236 234 234 236 236 234 234 236 236 237 238 238 238 237 237 236 235 235 236 238 241 243 245 245 247 249 248 244 242 243 243 239 236 236 238 237 235 235 235 234 230 228 228 231 234 236 237 239 239
Height
1508 1511 1515 1518 1521 1523 1525 1527 1530 1532 1533 1535 1536 1537 1538 1539 1541 1542 1544 1545 1547 1548 1549 1550 1551 1553 1554 1556 1557 1558 1559 1560 1561 1562 1563 1564 1565 1566 1567 1568 1568 1569 1570 1570 1571 1571 1571 1571 1572 1572 1573 1574 1574 1574 1574 1575 1575 1575 1575 1575 1575 1576 1576
1508 1510 1513 1517 1520 1522 1523 1525 1527 1529 1531 1533 1534 1535 1536 1537 1538 1540 1542 1543 1544 1546 1547 1548 1550 1551 1553 1554 1555 1556 1557 1558 1559 1560 1561 1562 1563 1564 1565 1566 1567 1568 1569 1569 1569 1570 1570 1570 1570 1571 1571 1572 1572 1572 1573 1573 1574 1574 1574 1574 1575 1575 1575
1505 1508 1511 1515 1517 1519 1521 1523 1525 1527 1528 1530 1531 1533 1534 1535 1536 1538 1539 1541 1542 1544 1545 1547 1548 1550 1551 1552 1553 1555 1556 1556 1558 1559 1559 1561 1562 1563 1564 1564 1565 1565 1566 1567 1567 1567 1568 1569 1569 1569 1570 1571 1571 1571 1572 1572 1572 1572 1573 1574 1574 1574 1575
1501 1504 1508 1511 1513 1515 1517 1519 1521 1524 1525 1527 1529 1530 1532 1533 1534 1536 1537 1539 1540 1542 1544 1545 1546 1548 1549 1551 1552 1553 1554 1555 1556 1557 1558 1559 1560 1561 1562 1563 1563 1563 1563 1564 1565 1565 1566 1567 1568 1569 1569 1570 1570 1571 1571 1571 1571 1571 1572 1572 1573 1574 1575
1497 1500 1503 1506 1508 1511 1513 1515 1518 1520 1522 1524 1526 1527 1528 1530 1531 1533 1535 1536 1538 1539 1541 1543 1544 1546 1548 1549 1550 1551 1552 1553 1554 1555 1556 1557 1558 1559 1560 1560 1561 1561 1562 1562 1564 1564 1565 1566 1567 1568 1569 1569 1569 1570 1570 1571 1570 1570 1570 1571 1572 1573 1574
1493 1497 1500 1502 1505 1507 1509 1512 1514 1516 1518 1520 1521 1523 1524 1526 1527 1529 1531 1533 1534 1537 1539 1540 1542 1544 1545 1547 1548 1549 1550 1551 1552 1553 1554 1555 1556 1556 1557 1558 1559 1560 1560 1561 1562 1563 1564 1565 1566 1566 1567 1568 1568 1569 1570 1570 1570 1569 1569 1570 1570 1572 1573
1489 1493 1496 1499 1501 1503 1506 1507 1509 1511 1513 1515 1517 1519 1521 1523 1524 1526 1528 1530 1532 1534 1536 1538 1540 1542 1543 1544 1546 1547 1548 1549 1550 1551 1552 1553 1554 1555 1555 1556 1557 1558 1559 1560 1561 1561 1562 1563 1564 1565 1566 1567 1567 1568 1568 1569 1569 1568 1568 1569 1569 1570 1571
1485 1489 1492 1495 1498 1500 1502 1504 1506 1507 1510 1512 1514 1517 1519 1520 1522 1523 1525 1527 1529 1532 1534 1535 1537 1539 1540 1542 1543 1544 1545 1546 1547 1548 1549 1550 1551 1552 1553 1554 1555 1556 1557 1558 1559 1560 1560 1561 1562 1564 1564 1565 1566 1566 1567 1567 1567 1567 1567 1568 1568 1568 1569
1482 1485 1488 1492 1495 1497 1498 1500 1502 1504 1507 1509 1511 1514 1516 1517 1519 1520 1522 1524 1526 1529 1531 1532 1534 1535 1537 1539 1540 1541 1542 1543 1544 1545 1546 1547 1548 1550 1551 1552 1553 1554 1555 1556 1557 1558 1559 1560 1561 1562 1563 1563 1565 1565 1566 1566 1565 1565 1566 1567 1567 1567 1568
1479 1482 1484 1487 1490 1493 1496 1497 1499 1502 1504 1506 1509 1511 1512 1514 1516 1517 1519 1521 1523 1526 1528 1530 1531 1532 1534 1535 1537 1538 1539 1540 1541 1542 1543 1544 1546 1547 1549 1550 1551 1552 1553 1555 1555 1556 1558 1558 1559 1560 1561 1562 1563 1564 1564 1564 1563 1563 1564 1565 1565 1566 1566
1476 1479 1481 1484 1487 1490 1492 1494 1496 1498 1501 1503 1505 1507 1509 1511 1512 1514 1516 1518 1520 1522 1524 1526 1528 1529 1531 1532 1533 1535 1536 1537 1538 1539 1540 1542 1543 1544 1546 1547 1548 1550 1551 1552 1553 1555 1556 1557 1557 1558 1559 1560 1561 1562 1562 1562 1561 1562 1563 1563 1563 1564 1564
1473 1476 1479 1482 1484 1486 1488 1490 1492 1494 1497 1500 1502 1503 1505 1507 1508 1510 1512 1514 1517 1519 1521 1523 1525 1527 1528 1529 1530 1531 1533 1534 1535 1536 1537 1539 1540 1541 1543 1544 1545 1547 1548 1549 1551 1552 1553 1555 1556 1556 1557 1558 1559 1559 1560 1560 1560 1560 1561 1561 1561 1562 1562
1470 1473 1476 1479 1481 1482 1484 1486 1488 1491 1493 1496 1498 1500 1501 1503 1505 1506 1509 1511 1513 1515 1517 1519 1521 1523 1525 1526 1527 1528 1529 1531 1532 1533 1534 1536 1537 1538 1539 1541 1542 1544 1545 1547 1548 1549 1551 1552 1553 1555 1556 1556 1557 1557 1558 1558 1557 1558 1559 1559 1559 1560 1560
1468 1471 1474 1476 1478 1479 1481 1483 1485 1488 1490 1492 1494 1496 1498 1499 1501 1503 1505 1508 1510 1512 1514 1516 1518 1520 1522 1523 1525 1526 1527 1528 1529 1530 1531 1532 1534 1535 1536 1538 1539 1541 1542 1544 1545 1546 1548 1549 1551 1552 1553 1554 1554 1555 1555 1556 1555 1556 1556 1557 1557 1558 1558
1465 1468 1471 1473 1474 1476 1478 1480 1482 1485 1487 1489 1491 1493 1494 1496 1498 1501 1503 1505 1507 1510 1512 1514 1516 1517 1519 1521 1522 1523 1524 1525 1526 1527 1528 1529 1530 1532 1533 1535 1536 1538 1540 1541 1542 1544 1545 1547 1548 1550 1551 1551 1552 1552 1553 1553 1553 1553 1554 1554 1555 1555 1556
1462 1465 1467 1469 1471 1473 1475 1477 1479 1481 1483 1486 1488 1490 1492 1493 1495 1498 1501 1503 1506 1508 1510 1512 1514 1515 1517 1518 1519 1520 1521 1522 1523 1524 1525 1526 1527 1528 1530 1531 1533 1535 1537 1538 1539 1541 1542 1544 1545 1546 1548 1549 1549 1550 1551 1551 1551 1551 1551 1552 1553 1553 1554
1459 1461 1463 1466 1468 1470 1472 1475 1477 1478 1480 1483 1485 1488 1490 1492 1494 1497 1499 1502 1504 1506 1509 1511 1513 1514 1515 1517 1518 1519 1519 1520 1521 1521 1522 1523 1524 1525 1526 1528 1530 1532 1534 1535 1536 1538 1539 1541 1542 1543 1545 1546 1547 1548 1549 1549 1549 1550 1550 1550 1551 1552 1553
1455 1457 1460 1462 1464 1467 1469 1472 1474 1476 1478 1481 1483 1486 1488 1490 1493 1495 1497 1500 1502 1505 1507 1510 1512 1513 1515 1516 1517 1518 1518 1519 1519 1519 1520 1521 1522 1523 1524 1525 1527 1529 1531 1532 1533 1535 1536 1538 1539 1540 1542 1543 1544 1546 1547 1547 1548 1548 1548 1548 1550 1551 1552
1451 1454 1456 1459 1461 1464 1467 1469 1472 1473 1476 1479 1481 1483 1486 1488 1491 1493 1496 1499 1501 1504 1506 1508 1511 1513 1515 1516 1517 1518 1518 1518 1518 1518 1518 1519 1520 1521 1522 1523 1525 1527 1528 1529 1530 1531 1533 1534 1536 1537 1539 1540 1542 1543 1544 1545 1546 1546 1546 1547 1548 1549 1550
1448 1450 1453 1456 1459 1462 1464 1467 1470 1472 1475 1479 1481 1481 1483 1486 1488 1491 1494 1497 1500 1502 1504 1507 1509 1512 1514 1515 1517 1517 1517 1517 1517 1517 1517 1517 1518 1519 1519 1521 1522 1524 1525 1526 1527 1529 1530 1532 1533 1534 1536 1538 1539 1541 1541 1542 1543 1543 1544 1545 1546 1547 1548
1445 1447 1450 1453 1457 1460 1463 1466 1469 1471 1475 1479 1480 1479 1479 1482 1485 1488 1491 1494 1497 1500 1503 1504 1506 1509 1512 1514 1515 1516 1516 1517 1517 1516 1516 1516 1516 1517 1517 1518 1519 1521 1522 1524 1525 1526 1528 1529 1530 1532 1533 1535 1537 1538 1539 1539 1540 1541 1542 1543 1544 1545 1546
1442 1445 1448 1451 1454 1458 1461 1464 1467 1470 1473 1477 1479 1478 1477 1480 1483 1486 1489 1492 1495 1498 1500 1501 1503 1506 1509 1511 1513 1514 1515 1515 1516 1515 1515 1515 1515 1515 1515 1516 1517 1518 1520 1521 1523 1524 1525 1526 1528 1529 1531 1533 1534 1535 1536 1537 1537 1538 1539 1541 1542 1543 1544
1440 1442 1445 1448 1452 1455 1458 1461 1464 1467 1470 1474 1478 1479 1478 1479 1481 1484 1487 1490 1493 1495 1496 1497 1499 1502 1505 1508 1510 1512 1514 1514 1514 1514 1514 1513 1513 1513 1513 1514 1515 1516 1517 1518 1520 1521 1522 1524 1525 1526 1528 1530 1531 1532 1533 1534 1534 1535 1537 1538 1539 1540 1541
1438 1439 1442 1445 1448 1452 1455 1458 1460 1463 1467 1471 1476 1478 1477 1477 1479 1482 1485 1488 1490 1492 1493 1494 1496 1499 1502 1505 1508 1510 1512 1512 1513 1513 1513 1512 1511 1511 1511 1511 1512 1514 1514 1515 1517 1518 1519 1521 1522 1524 1525 1527 1528 1529 1530 1531 1532 1533 1534 1536 1537 1538 1538
1436 1436 1438 1441 1444 1447 1450 1453 1455 1459 1462 1466 1471 1474 1475 1476 1478 1481 1484 1486 1488 1489 1490 1492 1493 1496 1499 1502 1505 1507 1509 1510 1511 1511 1511 1510 1510 1510 1509 1510 1510 1511 1512 1513 1514 1515 1517 1518 1520 1521 1522 1524 1525 1526 1527 1529 1530 1531 1532 1533 1535 1535 1536
1432 1432 1433 1436 1439 1441 1444 1447 1451 1454 1457 1460 1464 1468 1472 1475 1477 1480 1482 1485 1486 1487 1489 1490 1491 1493 1496 1499 1502 1504 1507 1508 1508 1509 1509 1508 1508 1508 1508 1508 1508 1508 1509 1510 1511 1513 1514 1515 1517 1518 1520 1521 1522 1523 1524 1526 1527 1529 1530 1531 1532 1533 1534
1428 1428 1429 1431 1433 1435 1438 1441 1445 1449 1452 1455 1459 1463 1467 1472 1475 1478 1480 1482 1484 1486 1487 1488 1489 1491 1494 1497 1500 1502 1504 1505 1506 1507 1507 1507 1506 1506 1506 1506 1506 1506 1507 1507 1509 1510 1511 1513 1514 1516 1517 1518 1519 1520 1521 1523 1525 1526 1527 1529 1529 1530 1532
1425 1425 1426 1427 1428 1430 1433 1436 1440 1443 1446 1450 1454 1457 1461 1466 1471 1474 1477 1480 1482 1484 1485 1486 1487 1489 1492 1495 1498 1500 1501 1502 1503 1504 1504 1504 1504 1504 1504 1504 1504 1504 1504 1505 1506 1507 1508 1510 1512 1513 1514 1515 1516 1517 1519 1520 1522 1523 1525 1526 1527 1528 1530
1420 1422 1423 1424 1424 1425 1428 1432 1436 1438 1440 1444 1449 1452 1454 1458 1464 1469 1473 1476 1479 1480 1481 1484 1485 1487 1490 1493 1496 1497 1498 1499 1500 1501 1501 1502 1502 1502 1502 1502 1501 1501 1501 1502 1503 1505 1506 1508 1509 1511 1512 1513 1514 1515 1516 1518 1519 1521 1522 1523 1525 1526 1527
1415 1419 1422 1423 1422 1423 1425 1429 1433 1435 1438 1442 1446 1448 1450 1453 1459 1464 1467 1471 1474 1475 1477 1480 1482 1485 1488 1491 1493 1495 1495 1495 1496 1497 1498 1499 1499 1499 1499 1499 1499 1498 1498 1499 1500 1502 1503 1505 1506 1508 1509 1510 1511 1512 1513 1515 1516 1518 1519 1521 1522 1523 1524
1411 1414 1417 1419 1423 1426 1427 1429 1431 1435 1438 1441 1443 1445 1447 1451 1455 1458 1462 1465 1468 1469 1471 1474 1478 1482 1485 1488 1490 1492 1492 1492 1493 1494 1494 1495 1496 1496 1496 1496 1496 1495 1495 1496 1498 1499 1500 1502 1503 1505 1506 1507 1508 1509 1510 1512 1513 1515 1516 1517 1519 1520 1521
1407 1408 1410 1413 1419 1424 1425 1426 1428 1430 1434 1437 1440 1442 1445 1448 1451 1454 1457 1460 1462 1463 1465 1468 1472 1476 1480 1483 1486 1488 1489 1489 1489 1489 1490 1491 1492 1492 1492 1493 1493 1492 1493 1494 1495 1496 1497 1499 1500 1502 1503 1505 1505 1506 1508 1509 1511 1512 1513 1515 1516 1517 1518
1403 1405 1407 1409 1413 1417 1420 1423 1424 1426 1429 1432 1435 1438 1440 1443 1447 1450 1454 1455 1456 1457 1458 1461 1465 1469 1473 1478 1482 1484 1484 1484 1484 1485 1486 1487 1488 1488 1489 1489 1489 1489 1490 1491 1492 1494 1495 1496 1497 1499 1500 1502 1503 1504 1506 1508 1509 1511 1512 1513 1513 1514 1515
1401 1402 1404 1406 1408 1411 1415 1417 1420 1422 1425 1428 1431 1433 1434 1436 1440 1444 1449 1451 1452 1452 1453 1454 1457 1462 1467 1472 1476 1479 1479 1478 1479 1481 1482 1483 1484 1484 1484 1485 1485 1486 1487 1488 1490 1491 1492 1493 1494 1496 1497 1499 1501 1502 1504 1506 1507 1509 1510 1511 1511 1512 1513
1399 1400 1402 1403 1405 1407 1410 1412 1414 1417 1420 1423 1425 1428 1430 1431 1433 1436 1440 1444 1446 1447 1448 1449 1450 1454 1460 1465 1470 1473 1473 1474 1475 1477 1478 1479 1479 1479 1480 1481 1481 1483 1484 1486 1487 1488 1489 1491 1492 1493 1496 1498 1499 1500 1502 1504 1505 1506 1507 1508 1509 1509 1510
1397 1398 1400 1401 1402 1404 1406 1407 1410 1412 1415 1417 1419 1422 1424 1426 1428 1430 1432 1435 1438 1440 1443 1443 1445 1449 1454 1459 1464 1467 1469 1470 1472 1473 1473 1474 1474 1476 1477 1478 1479 1480 1482 1484 1485 1486 1488 1489 1490 1491 1494 1496 1496 1498 1499 1501 1502 1503 1504 1505 1506 1506 1506
1395 1395 1396 1398 1399 1400 1402 1404 1406 1408 1410 1412 1414 1416 1419 1420 1423 1426 1428 1430 1432 1435 1436 1438 1440 1445 1450 1454 1458 1462 1464 1466 1468 1469 1469 1470 1471 1473 1475 1476 1476 1478 1480 1482 1484 1485 1486 1486 1487 1489 1491 1493 1494 1494 1495 1496 1498 1499 1500 1501 1502 1502 1503